Showing default

NOAA 3, 6920

Orbit data source: Space-Track

NOAA 3, 6920 is a payload satellite owned by NOAA (US) in SSO that was launched on Tue, 06 Nov 1973 UTC via a DELTA 0300 launch vehicle from the Air Force Western Test Range (AFWTR). Payload-class satellites include a variety of spacecraft equipped with specific instruments for various scientific and technological missions. These include communications satellites like Starlink; space stations such as the ISS; scientific satellites like the Hubble; Earth observation satellites from companies like Planet Labs, Umbra, and HawkEye 360; GPS; miniature CubeSats for education and research; and military/defense satellites.

Loading next visibility...
Identifier
6920, 1973-086A
Orbit
SSO
Country
Flag of USUS
Related business
Manufacturer
RCA/East Windsor
Mission
Non-operational spacecraft
Bus & Motor
TIROS M, Unknown motor
Mass
340 kg wet, 340 kg dry
Launch date (UTC)
1973-11-06 (53 years ago)
Launch vehicle
DELTA 0300
Launch site
Air Force Western Test Range (AFWTR)
Object type
Payload
Rocket body
Debris
Shape & HBR
BOX + 2 PAN, 2.1 m
Radar Cross Section
Large (>1 m²)

Expand to show TLE details & history
Last TLE update: 1 day ago

TLE from 1 day ago
0 NOAA 3
1 06920U 73086A   26208.54425608 -.00000017  00000-0  21518-3 0  9992
2 06920 102.2845 222.8544 0006849  54.2121 100.3325 12.40395786386905
Epoch: 2026-07-27T13:03Z
TLE epoch observation values (Epoch: 2026-07-27T13:03:43.725Z)
Latitude
24.78531°
Longitude
-92.56167°
Altitude
1,508.565 km
Speed
7.112 km/s
True Right ascension
03h 14m 23s
True Declination
24° 40' 02"
Sunlit
Object was in daylight at epoch
Visualization orbit readout
Latitude
Unknown
Longitude
Unknown
Altitude
Unknown
Speed
Unknown
Apparent Right ascension
Unknown
Apparent Declination
Unknown
Sunlit
N/A
Visualization observer readout
Local Sidereal Time
08:42:07
Azimuth
Unknown
Elevation
Unknown
Doppler factor
Unknown
Orbital elements
Apogee altitude
1,507.915 km
Perigee altitude
1,497.12 km
Semi-major axis
7,880.654 km
Eccentricity
0.00068
Inclination
102.2845°
RAAN
222.8544°
Arg. of periapsis
54.2121°
True anomaly
100.4097°
Mean anomaly
100.3325°
Eccentric anomaly
100.3711°
Mean motion
3.10241 °/min
Orbital period
116.04 mins
BSTAR
0.00021518
Loading maneuver chart data...
Computing Atmospheric mass density...
Loading historical data...
Loading historical data...
Loading historical data...
Loading historical data...
Loading historical data...
Loading historical data...
Loading historical data...

Documentation

Showing up to 5 results
|